Miscellaneous Local Product
Issued by NWS North Platte, NE

Home | Current Version | Previous Version | Graphics & Text | Print | Product List | Glossary On
Versions: 1 2 3 4 5 6 7 8 9 10 11 12 13 14 15 16 17 18 19 20 21 22 23 24 25 26 27 28 29 30 31 32 33 34 35 36 37 38 39 40 41 42 43 44 45 46 47 48 49 50
000
AXUS43 KLBF 281610
MISLBF


WESTERN AND NORTH CENTRAL NEBRASKA HOURLY WEATHER ROUNDUP
NATIONAL WEATHER SERVICE NORTH PLATTE NE
1100 AM CDT TUE JUL 28 2015

***STATIONS NOT REPORTING VARIABLES SUCH AS SKY/WEATHER OR
PRESSURE ARE PROVIDED BY THE NEBRASKA DEPARTMENT OF
ROADS...RAWS...AND APRS NETWORKS...AND ARE NOT UNDER
NATIONAL WEATHER SERVICE QUALITY CONTROL***

...OBSERVATIONS IN AND NEAR THE EASTERN PANHANDLE OF NEBRASKA...

CITY           SKY/WX    TMP DP  RH WIND       PRES   REMARKS
PINE RIDGE     SUNNY     68  46  45 W12G18    30.06R
CHADRON        SUNNY     68  46  45 W14G21    30.07S
ALLIANCE       SUNNY     70  41  34 NW17G23   30.07S
SIDNEY         SUNNY     73  32  22 NW25G33   30.11S
BIG SPRINGS      N/A     73  47  39 NW7         N/A
$$

...OBSERVATIONS IN NORTH CENTRAL NEBRASKA...

CITY           SKY/WX    TMP DP  RH WIND       PRES   REMARKS
VALENTINE      SUNNY     73  47  39 NW16G28   30.00R
THEDFORD       SUNNY     74  56  51 N14       30.03R
AINSWORTH      SUNNY     72  48  42 N16G24    30.01R
O`NEILL        SUNNY     72  57  59 NW21      29.96R
ORD            MOSUNNY   75  56  51 N21G29    29.93R
BROKEN BOW     SUNNY     74  50  42 N18G30    29.98R
SPRINGVIEW       N/A     71  52  51 NW12G20     N/A
CHAMBERS         N/A     75  56  52 S8          N/A
EWING            N/A     70  64  82 N6G13       N/A
$$

...OBSERVATIONS IN SOUTHWEST NEBRASKA AND FAR NORTHEAST COLORADO...

CITY           SKY/WX    TMP DP  RH WIND       PRES   REMARKS
WRAY           FAIR      77  41  27 N16G24    30.09R
HOLYOKE        FAIR      79  39  24 N16G25    30.09R
IMPERIAL       SUNNY     78  42  27 N21       30.04R
OGALLALA       SUNNY     75  44  33 N18       30.06R
NORTH PLATTE   SUNNY     76  53  44 N15G25    30.01R
MCCOOK         SUNNY     79  50  36 N18       29.99R
LEXINGTON      MOSUNNY   75  51  42 N21G30    29.97R
PAXTON           N/A     77  48  35 NW12        N/A
BRADY            N/A     74  53  47 CALM        N/A
CALLAWAY         N/A     73  55  53 N12         N/A
$$

...NORTH PLATTE AREA...

CITY           SKY/WX    TMP DP  RH WIND       PRES   REMARKS
AIRPORT        SUNNY     76  53  44 N15G25    30.01R
DOWNTOWN         N/A     76  52  42 N10G20      N/A
SANDRIDGE        N/A     77  53  42 N8G15       N/A
HILLCREST        N/A     76  51  41 N18G25      N/A
$$

...SOME WEATHER OBSERVATIONS FROM AROUND THE REGION...

CITY           SKY/WX    TMP DP  RH WIND       PRES   REMARKS
DENVER         MOSUNNY   70  33  25 SE15      30.15S
LARAMIE        SUNNY     61  29  29 VRB5G17   30.24F
CHEYENNE       SUNNY     68  32  26 NW21G32   30.18F
SCOTTSBLUFF    SUNNY     71  43  36 NW13      30.09S
RAPID CITY     SUNNY     69  43  38 W16G26    30.01R
PIERRE         SUNNY     72  50  45 W23G30    29.90S
WINNER         FAIR      71  51  49 NW22G28   29.97R
SIOUX FALLS    MOSUNNY   79  70  74 W9G17     29.83R
OMAHA          PTSUNNY   79  71  76 SE16G24   29.85F
GRAND ISLAND   TSTM      74  68  81 NW17G25   29.89R
KANSAS CITY    MOSUNNY   88  75  65 SW14      29.92R HX  97
WICHITA        SUNNY     91  69  48 S18       29.87S HX  96
HAYS           SUNNY     88  66  48 W12       29.85R HX  90
LIBERAL        SUNNY     86  64  48 NW16      29.93R
GOODLAND       SUNNY     77  43  29 N22G33    30.05R
$$



USA.gov is the U.S. government's official web portal to all federal, state and local government web resources and services.